Location: Clifton Park
(41.4873°N, 81.8024°W)
Time: 09:59:11
(UTC+00:00)

STARLINK-53 - Pass Details

Date: 21 January 2020
Orbit: 528 x 531 km, 53.0° (Epoch: 19 February)

Event Time Altitude Azimuth Distance (km) Brightness Sun altitude
Exits shadow 11:29:17 25° 264° (W) 1,098 4.6 -14.7°
Maximum altitude 11:31:20 49° 328° (NNW) 685 3.8 -14.3°
Drops below altitude 10° 11:35:15 10° 44° (NE) 1,777 6.6 -13.6°
Sets 11:37:32 0° 50° (NE) 2,669 7.6 -13.2°
